Voltar ao catálogo

OPS 6564

VELA 6

AtivoMilitarHEO
NORAD 1459·PAYLOAD·🇺🇸 United States

Lançado Jul 20, 1965 de Cape Canaveral Space Force Station

Loading…

Próximas Passagens (próximas 24 horas)

TLE

ObsoletoSource: Space-Track

Época: Aug 20, 2026, 02:15 UTC

1 01459U 65058B   26232.09412380 -.00001187  00000-0  00000-0 0  9993
2 01459  41.6182 357.8346 4847933  96.8287   1.9515  0.21366342  9374

Acompanhe OPS 6564 em tempo real com AllMySat

Download on the App Store